Regional Weather Roundup
Issued by NWS

Home | Current Version | Previous Version | Graphics & Text | Print | Product List | Glossary On
Versions: 1 2 3 4 5 6 7 8 9 10 11 12 13 14 15 16 17 18 19 20 21 22 23 24 25 26 27 28 29 30 31 32 33 34 35 36 37 38 39 40 41 42 43 44 45 46 47 48 49 50
000
ASUS45 KTFX 011404
RWRMT
MONTANA HOURLY WEATHER ROUNDUP
NATIONAL WEATHER SERVICE GREAT FALLS MT
804 AM MDT MON SEP 1 2014

NOTE: "FAIR" INDICATES FEW OR NO CLOUDS BELOW 12000 FEET WITH NO
SIGNIFICANT WEATHER AND/OR OBSTRUCTIONS TO VISIBILITY.

* THESE STATIONS ARE NOT UNDER NWS QUALITY CONTROL. THEY DO NOT
   REPORT WEATHER SUCH AS PRECIPITATION OR FOG.

MTZ001>007-043-011500-
WEST OF THE DIVIDE
CITY           SKY/WX    TMP DP  RH WIND       PRES   REMARKS
KALISPELL      CLOUDY    50  48  93 CALM      30.02R
MISSOULA       PTCLDY    43  39  86 CALM      30.09R
BUTTE          PTCLDY    37  36  96 CALM      30.10R
MULLAN PASS    CLOUDY    43  37  79 VRB5      30.09R
* LINCOLN      N/A       36  35  96 NE1        N/A
* LOOKOUT PASS N/A       45  40  83 SE1        N/A
* POLSON       N/A       49  43  80 SE2        N/A
* RONAN APT    PTSUNNY   52  45  77 N/A        N/A
* SEELEY LAKE  N/A       34  33  96 E1         N/A
* THOMP F APT  PTCLDY    43  36  76 N3G13      N/A
$$

MTZ008-052>055-011500-
SOUTHWEST MONTANA
CITY           SKY/WX    TMP DP  RH WIND       PRES   REMARKS
BOZEMAN        CLOUDY    50  46  86 S5        30.06R
DILLON         SUNNY     45  37  74 S6        30.07R
W YELLOWSTONE  CLOUDY    37  37 100 S3        30.11R
* THREE FORKS  SUNNY     45  28  51 N/A        N/A
* BOULDER HILL N/A       46  30  54 E4         N/A
* MONIDA PASS  N/A       41  36  82 W5         N/A
* RAYNOLDS PAS N/A       40  20  45 N/A        N/A
* WHITEHALL    N/A       44  40  86 NW3        N/A
* WISE RIVER   N/A       35  33  92 SW3        N/A
$$

MTZ009>010-012-014-046-048-049-054-011500-
EAST SLOPES AND CENTRAL MONTANA
CITY           SKY/WX    TMP DP  RH WIND       PRES   REMARKS
CUT BANK       PTCLDY    54  39  57 W16       29.94S
GREAT FALLS    CLOUDY    55  39  55 SW12      29.96S
HELENA         PTCLDY    54  39  57 W5        30.04R
MALMSTROM AFB  PTSUNNY   54  41  62 SW14      29.98R
* CONRAD       PTCLDY    54  43  67 SW10G16    N/A
* EAST GLACIER N/A       48  39  71 W19G27     N/A
* MONARCH      N/A       41  35  79 S8         N/A
* PENDROY      N/A       52  38  59 W12G17     N/A
* ROGERS PASS  N/A       44  36  74 E2G16      N/A
* SAINT MARY   N/A       50  38  64 S7G16      N/A
* SWEET GRASS  N/A       49  39  69 W12G17     N/A
$$

MTZ011-013-016-021-035-040-045-047-050-051-011500-
NORTH CENTRAL MONTANA
CITY           SKY/WX    TMP DP  RH WIND       PRES   REMARKS
HAVRE          SUNNY     52  43  72 SW13      29.91R
LEWISTOWN      PTCLDY    52  39  61 CALM      29.98R
* CHESTER      N/A       49  40  71 NW3        N/A
* DENTON       N/A       53  41  64 W8         N/A
* GEYSER       N/A       51  40  66 NW2        N/A
* JUDITH GAP   N/A       48  40  74 SW1        N/A
* LOMA         N/A       51  42  71 SW8        N/A
$$

MTZ017>020-022>027-061-062-011500-
NORTHEAST MONTANA
CITY           SKY/WX    TMP DP  RH WIND       PRES   REMARKS
GLASGOW        PTSUNNY   54  50  86 NW3       29.87R
GLENDIVE       CLOUDY    55  50  83 W6        29.89S
JORDAN         PTSUNNY   54  48  80 CALM      29.89R
SIDNEY         PTCLDY    55  52  90 CALM      29.88R
WOLF POINT     PTCLDY    52  46  80 SW5       29.87S
* BEAVER HILL  N/A       54  48  80 SW6G12     N/A
* CIRCLE       N/A       51  49  93 N/A        N/A
* LINDSAY DVD  N/A       52  48  86 NW8        N/A
* NAVAJO       N/A       53  44  72 W12        N/A
$$

MTZ028>042-056>058-011500-
SOUTHCENTRAL AND SOUTHEAST MONTANA
CITY           SKY/WX    TMP DP  RH WIND       PRES   REMARKS
BAKER          CLOUDY    55  46  72 W9        29.91R
BILLINGS       PTSUNNY   54  46  74 SW12      29.98S
LIVINGSTON     PTSUNNY   48  45  89 W7        30.03R
MILES CITY     PTCLDY    57  45  64 W10       29.90R
* LAUREL APT   PTSUNNY   52  46  80 S8         N/A
* ROUNDUP APT  PTSUNNY   48  41  77 S7         N/A
* ALZADA       N/A       53  48  83 NW1        N/A
* HYSHAM       N/A       53  47  80 W5         N/A
* LAME DEER    N/A       52  44  74 W8         N/A
* REED POINT   N/A       52  49  90 SW4        N/A
* ROSCOE HILL  N/A       47  40  77 S6         N/A
$$

REGIONAL REPORTS...DAKOTAS
CITY           SKY/WX    TMP DP  RH WIND       PRES   REMARKS
WILLISTON      SUNNY     54  48  80 SW5       29.84R
DICKINSON      PTCLDY    55  48  77 W13       29.83R
BEACH          N/A       54  52  93 W12       29.89R
CROSBY         SUNNY     55  50  83 W9        29.82R
TIOGA          SUNNY     54  54 100 W8        29.85R
WATFORD CITY   SUNNY     50  50 100 SW5       29.83R
BISMARCK       SUNNY     57  52  83 W8        29.80R
GRAND FORKS    PTCLDY    61  55  81 CALM      29.70R
FARGO          SUNNY     61  55  81 W3        29.71S
BUFFALO SD     PTCLDY    55  48  77 W10       29.82S
RAPID CITY     PTCLDY    61  50  67 W6        29.93R
$$

REGIONAL REPORTS...WYOMING/IDAHO/WASHINGTON
CITY           SKY/WX    TMP DP  RH WIND       PRES   REMARKS
GILLETTE       CLOUDY    54  46  74 SW6       29.98S
SHERIDAN       CLOUDY    55  45  69 W9        30.00R
CODY           PTSUNNY  N/A N/A N/A N/A        N/A
SALMON         PTCLDY    46  43  89 CALM      30.09R
MULLAN PASS    CLOUDY    43  37  79 VRB5      30.09S
SAND POINT     PTCLDY    45  45 100 CALM      30.03R
SPOKANE        SUNNY     46  39  77 S5        30.03R

$$



USA.gov is the U.S. government's official web portal to all federal, state and local government web resources and services.